Home > Weather > Brockville > Past weeks

Flag for Canada Weather for the Past 2 Weeks in Brockville, Ontario, Canada

Now
60 °F

Partly sunny.


Feels Like: 59 °F
Forecast: 37 / 61 °F
Wind: 7 mph from North

Location: Fort Drum / Wheeler-Sack U. S. Army Airfield

Current Time: May 3, 2016 at 6:59:11 PM

Latest Report: May 3, 2016 at 5:58 PM


Visibility: 10 mi

Pressure: 29.78 "Hg

Humidity: 48%

Dew Point: 40 °F

Location of BrockvilleLocation

Historic Weather in Brockville — Graph

°F

Brockville Temperature Yesterday

Maximum temperature yesterday: 48 °F (at 4:00 PM)
Minimum temperature yesterday: 42 °F (at 10:58 PM)
Average temperature yesterday: 45 °F

High & Low Weather Summary for the Past Weeks

 TemperatureHumidityPressure
High77 °F (Apr 21, 2:58 PM)100% (Apr 19, 3:53 AM)30.35 "Hg (Apr 19, 3:53 AM)
Low29 °F (Apr 27, 5:58 AM)13% (Apr 21, 2:58 PM)29.74 "Hg (Apr 26, 5:59 AM)
Average46 °F58%30.04 "Hg
* Reported Apr 18 4:03 PM — May 3 4:58 PM, Brockville, Weather by CustomWeather, © 2016

Note: Actual official high and low records may vary slightly from our data, if they occured in-between our weather recording intervals... More about our weather records

Advertising

Brockville Weather History for the Previous 24 Hours

Scroll right to see more
 ConditionsComfort  
Time TempWeatherWind HumidityBarometerVisibility
4:58 PM
Tue, May 3
60 °FPartly sunny.12 mph50%29.79 "Hg10 mi
3:58 PM60 °FScattered clouds.5 mph50%29.80 "Hg10 mi
2:58 PM58 °FPassing clouds.2 mph54%29.82 "Hg10 mi
1:58 PM57 °FPartly sunny.8 mph56%29.84 "Hg10 mi
1:03 PM54 °FPartly sunny.7 mph63%29.86 "Hg10 mi
11:58 AM52 °FPartly sunny.6 mph70%29.89 "Hg10 mi
10:58 AM46 °FPartly sunny.8 mph95%29.91 "Hg10 mi
9:58 AM44 °FMostly cloudy.7 mph99%29.93 "Hg10 mi
8:58 AM43 °FLow clouds.8 mph99%29.94 "Hg10 mi
6:58 AM39 °FFog.No wind100%29.94 "Hg1 mi
5:58 AM38 °FFog.No wind99%29.94 "Hg0 mi
4:58 AM36 °FFog.No wind99%29.96 "Hg0 mi
3:58 AM37 °FFog.2 mph100%29.96 "Hg0 mi
3:53 AM37 °FFog.2 mph100%29.94 "Hg0 mi
3:03 AM37 °FFog.No wind100%29.95 "Hg0 mi
2:03 AM39 °FFog.No wind100%29.95 "Hg2 mi
12:58 AM43 °FOvercast.5 mph97%29.95 "Hg9 mi
11:58 PM
Mon, May 2
42 °FFog.2 mph98%29.97 "Hg4 mi
11:48 PM43 °FFog.3 mph93%29.96 "Hg3 mi
10:58 PM42 °FClear.2 mph97%29.99 "Hg7 mi
9:58 PM44 °FPassing clouds.7 mph95%29.99 "Hg10 mi
8:58 PM46 °FCloudy.3 mph93%30.02 "Hg10 mi
7:58 PM46 °FMostly cloudy.7 mph91%29.98 "Hg10 mi
6:58 PM46 °FOvercast.6 mph91%29.99 "Hg10 mi
Weather by CustomWeather, © 2016

See weather overviewHow to use our weather pages